Regional Weather Roundup
Issued by NWS

Home | Current Version | Previous Version | Text Only | Print | Product List | Glossary On
Versions: 1 2 3 4 5 6 7 8 9 10 11 12 13 14 15 16 17 18 19 20 21 22 23 24 25 26 27 28 29 30 31 32 33 34 35 36 37 38 39 40 41 42 43 44 45 46 47 48 49
000
ASUS43 KDMX 031207
RWRIA

WEATHER ROUNDUP FOR IOWA
NATIONAL WEATHER SERVICE DES MOINES IA
700 AM CDT THU SEP 03 2015

NOTE: "FAIR" INDICATES FEW OR NO CLOUDS BELOW 12,000 FEET WITH NO
SIGNIFICANT WEATHER AND/OR OBSTRUCTIONS TO VISIBILITY.

* - THESE STATIONS ARE NOT NWS STATIONS...THUS NOT UNDER NWS
QUALITY CONTROL.  THEY ALSO DO NOT REPORT WEATHER SUCH
AS PRECIPITATION OR FOG.

IAZ001>003-012>014-020>022-031>034-043>046-031300-
   NORTHWEST IOWA

CITY           SKY/WX    TMP DP  RH WIND       PRES   REMARKS
CARROLL *      CLEAR     70  68  94 CALM      29.89R
CHEROKEE *     CLEAR     68  68 100 S3        29.87R
DENISON *      CLEAR     70  68  94 SE7       29.86S
LE MARS *        N/A     70  68  94 S6        29.85S
ORANGE CITY *  CLEAR     70  68  94 CALM      29.85S
SHELDON *      CLEAR     68  66  94 SE6       29.85S
SIOUX CITY     CLEAR     69  65  86 SE8       29.83S
6HR MIN TEMP:  69; 6HR MAX TEMP:  72;

SPENCER        CLEAR     66  64  93 SE6       29.88R FOG
6HR MIN TEMP:  65; 6HR MAX TEMP:  73;

STORM LAKE *   CLEAR     68  68 100 S7        29.89R
$$

IAZ055>058-069>071-079>083-090>094-031300-
   SOUTHWEST IOWA

CITY           SKY/WX    TMP DP  RH WIND       PRES   REMARKS
ATLANTIC *     MOCLDY    73  70  88 S7        29.89S
AUDUBON *      PTCLDY    70  66  88 CALM      29.91R
CLARINDA *     MOCLDY    72  70  94 S6        29.91S
COUNCIL BLFS * CLEAR     70  68  94 S9        29.87R
CRESTON *      CLOUDY    72  70  94 S10       29.94R
LAMONI         MOCLDY    72  68  87 S8        29.94R
6HR MIN TEMP:  71; 6HR MAX TEMP:  74;

RED OAK *      CLOUDY    72  70  94 S5        29.89R
SHENANDOAH *   CLOUDY    73  70  88 S6        29.89R
$$

IAZ047>049-059>061-072>074-084-031300-
   CENTRAL IOWA

CITY           SKY/WX    TMP DP  RH WIND       PRES   REMARKS
AMES           PTCLDY    68  68 100 SE5       29.91R FOG
6HR MIN TEMP:  66; 6HR MAX TEMP:  69;

ANKENY *       CLEAR     70  70 100 SE3       29.91S
CHARITON *     MOCLDY    72  68  88 CALM      29.94R
DES MOINES     MOCLDY    73  68  84 S7        29.90S
6HR MIN TEMP:  73; 6HR MAX TEMP:  76;

GRINNELL*      CLEAR     70  68  94 S5        29.94S
KNOXVILLE *    PTCLDY    72  68  88 S8        29.92R
MARSHALLTOWN   PTCLDY    67  66  97 SE5       29.92R FOG
6HR MIN TEMP:  66; 6HR MAX TEMP:  73;

PELLA *        PTCLDY    72  71  98 S3        29.94S
PERRY *          N/A     68  67  98 SE6       29.90R FOG
$$

IAZ004>006-015-016-023>025-035-036-031300-
   NORTH CENTRAL IOWA

CITY           SKY/WX    TMP DP  RH WIND       PRES   REMARKS
ALGONA *       CLEAR     70  68  94 S8        29.90R
CLARION *      CLEAR     68  68 100 SE7       29.91R
ESTHERVILLE    CLEAR     64  64 100 S6        29.88R FOG
6HR MIN TEMP:  64; 6HR MAX TEMP:  69;

FORT DODGE *   CLEAR     70  64  83 SE6       29.91R
MASON CITY     CLEAR     65  65 100 SE6       29.93S FOG
6HR MIN TEMP:  64; 6HR MAX TEMP:  68;

FOREST CITY *  CLEAR     64  64 100 SE3       29.91R FOG
IOWA FALLS *     N/A     68  66  94 SE3       29.93S FOG
$$

IAZ007>011-017>019-026>030-037>042-050>054-066-031300-
   NORTHEAST IOWA

CITY           SKY/WX    TMP DP  RH WIND       PRES   REMARKS
CEDAR RAPIDS   MOCLDY    69  69 100 S5        29.94R FOG
6HR MIN TEMP:  68; 6HR MAX TEMP:  72;

CHARLES CITY * CLEAR     66  66 100 SE6       29.93S FOG
CLINTON *      CLEAR     68  66  94 S6        29.98R
DECORAH *      CLEAR     70  68  94 VRB5      29.93R
DUBUQUE        CLEAR     67  65  93 SW5       29.95S FOG
6HR MIN TEMP:  66; 6HR MAX TEMP:  70;

MONTICELLO *   CLEAR     66  66 100 CALM      29.94S FOG
OELWEIN *        N/A    N/A N/A N/A MISG      29.95R
WATERLOO       CLEAR     70  67  90 S5        29.92R
6HR MIN TEMP:  68; 6HR MAX TEMP:  72;

$$

IAZ064-065-067-068-078-031300-
   EAST CENTRAL IOWA

CITY           SKY/WX    TMP DP  RH WIND       PRES   REMARKS
DAVENPORT      CLEAR     70  68  93 S5        29.96R
6HR MIN TEMP:  70; 6HR MAX TEMP:  75;

IOWA CITY      MOCLDY    69  67  93 CALM      29.96R
6HR MIN TEMP:  67; 6HR MAX TEMP:  72;

MT. PLEASANT * CLEAR     71  67  87 CALM      29.97R
MUSCATINE *    CLEAR     68  66  94 CALM      29.96R FOG
QUAD CITIES    CLEAR     72  67  84 CALM      29.96R
6HR MIN TEMP:  71; 6HR MAX TEMP:  76;

$$

IAZ062-063-075>077-085>089-095>099-031300-
   SOUTHEAST IOWA

CITY           SKY/WX    TMP DP  RH WIND       PRES   REMARKS
BURLINGTON     MOCLDY    71  69  93 S6        29.97R
6HR MIN TEMP:  70; 6HR MAX TEMP:  74;

FAIRFIELD *    MOCLDY    70  68  94 S6        29.96R
FORT MADISON * CLEAR     70  70 100 S6        29.98R
KEOKUK *       PTCLDY    73  68  83 S6        29.97R
OSKALOOSA *    MOCLDY    69  67  93 CALM      29.95R
CENTERVILLE *  PTCLDY    68  68 100 S5        29.97R
OTTUMWA        PTCLDY    71  69  93 S6        29.93R
6HR MIN TEMP:  70; 6HR MAX TEMP:  73;

WASHINGTON *     N/A    N/A N/A N/A MISG        N/A
$$

ABBREVIATIONS USED IN REMARKS
   TC - TEMPERATURES IN CELSIUS
  WCI - WIND CHILL INDEX
   HX - HEAT INDEX
  VSB - VISIBILITY
$$



USA.gov is the U.S. government's official web portal to all federal, state and local government web resources and services.